TimeEST,TemperatureF,Dew PointF,Humidity,Sea Level PressureIn,VisibilityMPH,Wind Direction,Wind SpeedMPH,Gust SpeedMPH,PrecipitationIn,Events,Conditions,WindDirDegrees,DateUTC
12:53 AM,25.0,19.0,78,30.36,10.0,SSE,3.5,-,N/A,,Clear,150,2012-12-06 05:53:00
1:53 AM,24.1,19.0,81,30.35,10.0,SE,4.6,-,N/A,,Clear,140,2012-12-06 06:53:00
2:53 AM,24.1,18.0,77,30.33,10.0,SE,6.9,-,N/A,,Clear,130,2012-12-06 07:53:00
3:53 AM,24.1,19.0,81,30.32,10.0,SE,4.6,-,N/A,,Clear,140,2012-12-06 08:53:00
4:53 AM,27.0,21.9,81,30.32,10.0,Calm,Calm,-,N/A,,Clear,0,2012-12-06 09:53:00
5:53 AM,27.0,21.0,78,30.30,10.0,SE,5.8,-,N/A,,Clear,140,2012-12-06 10:53:00
6:53 AM,28.0,21.9,78,30.29,10.0,SE,8.1,-,N/A,,Clear,130,2012-12-06 11:53:00
7:53 AM,23.0,19.0,85,30.27,10.0,SSE,6.9,-,N/A,,Clear,150,2012-12-06 12:53:00
8:53 AM,30.9,26.1,82,30.24,10.0,SSE,6.9,-,N/A,,Clear,160,2012-12-06 13:53:00
9:53 AM,34.0,28.0,79,30.21,10.0,South,15.0,-,N/A,,Clear,170,2012-12-06 14:53:00
10:53 AM,35.1,28.0,76,30.22,10.0,South,10.4,-,N/A,,Scattered Clouds,180,2012-12-06 15:53:00
11:19 AM,35.6,28.4,75,30.17,10.0,South,15.0,20.7,N/A,,Mostly Cloudy,180,2012-12-06 16:19:00
11:29 AM,35.6,28.4,75,30.17,10.0,South,10.4,18.4,N/A,,Scattered Clouds,190,2012-12-06 16:29:00
11:53 AM,36.0,28.0,73,30.18,10.0,South,15.0,19.6,N/A,,Partly Cloudy,190,2012-12-06 16:53:00
12:53 PM,37.0,26.1,65,30.14,10.0,South,11.5,-,N/A,,Clear,190,2012-12-06 17:53:00
1:53 PM,37.9,24.1,57,30.11,10.0,SSW,9.2,-,N/A,,Clear,200,2012-12-06 18:53:00
2:53 PM,37.9,24.1,57,30.08,10.0,South,8.1,-,N/A,,Clear,180,2012-12-06 19:53:00
3:53 PM,37.9,25.0,60,30.06,10.0,South,6.9,-,N/A,,Clear,180,2012-12-06 20:53:00
4:53 PM,37.9,25.0,60,30.05,10.0,SSE,3.5,-,N/A,,Partly Cloudy,150,2012-12-06 21:53:00
5:53 PM,37.0,26.1,65,30.02,10.0,SSE,11.5,-,N/A,,Clear,160,2012-12-06 22:53:00
6:53 PM,37.0,27.0,67,30.02,10.0,SSW,4.6,-,N/A,,Clear,200,2012-12-06 23:53:00
7:53 PM,37.4,28.4,70,29.98,10.0,South,10.4,-,N/A,,Mostly Cloudy,180,2012-12-07 00:53:00
8:53 PM,37.0,28.0,70,30.00,10.0,South,10.4,-,N/A,,Overcast,180,2012-12-07 01:53:00
9:53 PM,37.0,28.0,70,29.99,10.0,SSW,6.9,-,N/A,,Mostly Cloudy,200,2012-12-07 02:53:00
10:53 PM,37.0,28.9,73,29.98,10.0,South,6.9,-,N/A,,Overcast,190,2012-12-07 03:53:00
11:53 PM,37.9,28.9,70,29.97,10.0,South,6.9,-,N/A,,Overcast,190,2012-12-07 04:53:00